Flag for Guinea Weather past 2 weeks in Nzérékoré, Guinea

Now
81 °F

Partly sunny.


Feels Like: 88 °F
Forecast: 72 / 85 °F
Wind: 7 mph from Northeast

Location: Roberts Field


UV Index: 10 (Very high)

Visibility: 6 mi


Pressure: 29.83 "Hg

Humidity: 94%

Dew point: 79 °F

Location of NzérékoréLocation

Historic Weather in Nzérékoré

°F

Nzérékoré temperature yesterday

Maximum temperature yesterday: 90 °F (at 2:00 PM)
Minimum temperature yesterday: 77 °F (at 4:00 AM)
Average temperature yesterday: 83 °F

Past Weeks' High & Low Weather Summary

 TemperatureHumidityPressure
High91 °F (Apr 5, 3:00 PM)100% (Apr 7, 4:30 AM)29.98 "Hg (Apr 7, 4:30 AM)
Low70 °F (Apr 14, 5:00 AM)46% (Apr 13, 12:00 PM)29.74 "Hg (Apr 16, 5:00 PM)
Average81 °F81%29.87 "Hg
* Reported Apr 3 7:00 AM — Apr 18 7:30 AM, Nzérékoré, Weather by CustomWeather, © 2014

Note: Actual official high and low records may vary slightly from our data, if they occured in-between our weather recording intervals... More about our weather records

Advertising

Historic Weather Conditions — Data for Previous 24 hours

 ConditionsComfort  
Time TempWeatherWind HumidityBarometerVisibility
7:30 AM
Apr 18
81 °FPassing clouds.No wind89%29.83 "Hg5 mi
7:00 AM79 °FPassing clouds.No wind94%29.83 "Hg4 mi
6:30 AM79 °FPassing clouds.No wind94%29.80 "Hg5 mi
6:00 AM79 °FPassing clouds.No wind94%29.80 "Hg5 mi
4:30 AM77 °FPassing clouds.No wind94%29.77 "HgN/A
3:00 AM79 °FPassing clouds.No wind94%29.80 "HgN/A
2:00 AM79 °FPassing clouds.No wind94%29.80 "HgN/A
1:30 AM79 °FPassing clouds.No wind94%29.80 "HgN/A
1:00 AM79 °FPassing clouds.No wind94%29.83 "HgN/A
12:30 AM79 °FPassing clouds.No wind94%29.83 "HgN/A
12:00 AM79 °FPassing clouds.No wind94%29.83 "HgN/A
11:00 PM
Apr 17
79 °FPassing clouds.No wind94%29.83 "HgN/A
10:30 PM79 °FPassing clouds.No wind94%29.83 "HgN/A
10:00 PM81 °FPassing clouds.No wind89%29.83 "HgN/A
9:30 PM81 °FPassing clouds.No wind89%29.83 "HgN/A
9:00 PM81 °FPassing clouds.No wind89%29.83 "HgN/A
8:30 PM81 °FPassing clouds.No wind89%29.80 "HgN/A
8:00 PM81 °FPassing clouds.No wind89%29.80 "HgN/A
7:30 PM82 °FScattered clouds.No wind84%29.80 "HgN/A
7:00 PM82 °FScattered clouds.No wind84%29.77 "HgN/A
6:30 PM84 °FScattered clouds.5 mph79%29.77 "HgN/A
6:00 PM84 °FScattered clouds.6 mph79%29.77 "HgN/A
5:00 PM88 °FScattered clouds.9 mph66%29.74 "HgN/A
4:30 PM88 °FScattered clouds.9 mph66%29.74 "HgN/A
4:00 PM90 °FScattered clouds.10 mph63%29.74 "HgN/A
3:30 PM90 °FPartly sunny.8 mph63%29.77 "HgN/A
3:00 PM90 °FPartly sunny.9 mph63%29.77 "HgN/A
2:30 PM90 °FScattered clouds.7 mph67%29.77 "HgN/A
2:00 PM90 °FScattered clouds.7 mph67%29.80 "HgN/A
1:30 PM88 °FPartly sunny.12 mph70%29.80 "HgN/A
1:00 PM88 °FPartly sunny.6 mph66%29.83 "HgN/A
12:30 PM88 °FPartly sunny.7 mph70%29.83 "HgN/A
12:00 PM86 °FPartly sunny.3 mph75%29.86 "HgN/A
11:30 AM86 °FPartly sunny.5 mph70%29.86 "HgN/A
11:00 AM84 °FPartly sunny.5 mph79%29.86 "HgN/A
10:30 AM86 °FPartly sunny.3 mph75%29.86 "HgN/A
10:00 AM86 °FPartly sunny.7 mph75%29.86 "HgN/A
9:30 AM86 °FPartly sunny.No wind75%29.86 "HgN/A
9:00 AM84 °FPartly sunny.3 mph84%29.86 "HgN/A
8:30 AM82 °FScattered clouds.5 mph89%29.83 "HgN/A
8:00 AM81 °FScattered clouds.No wind84%29.83 "HgN/A
Weather by CustomWeather, © 2014

See weather overview